Location: Newark
(48.1500°N, 2.9667°W)
Time: 00:42:39
(UTC+00:00)

Vanguard 1 Rocket - Visible Passes

Search period start: 18 January 2020 00:00
Search period end: 28 January 2020 00:00
Orbit: 650 x 4226 km, 34.3° (Epoch: 16 January)

Date Brightness Start Highest point End Pass type
(mag) Time Alt. Az. Time Alt. Az. Time Alt. Az.
18 Jan 11.9 18:13:05 10° W 18:30:37 28° SW 18:49:19 10° S visible
19 Jan 12.0 16:59:08 10° W 17:17:14 36° SSW 17:38:48 10° SSE visible
19 Jan 12.2 19:35:06 10° WSW 19:44:50 14° SW 19:54:40 10° SSW visible
20 Jan 12.1 18:16:49 10° W 18:32:11 22° SW 18:48:55 10° S visible
21 Jan 12.1 17:02:19 10° W 17:19:01 31° SW 17:39:14 10° SSE visible
22 Jan 12.3 18:21:25 10° W 18:33:49 17° SW 18:47:21 10° SSW visible
23 Jan 12.2 17:05:51 10° W 17:20:50 25° SW 17:39:04 10° S visible
24 Jan 12.5 18:28:15 10° WSW 18:35:31 12° SW 18:43:14 10° SSW visible
25 Jan 12.4 17:10:00 10° W 17:22:43 20° SW 17:38:02 10° S visible
27 Jan 12.6 17:15:22 10° WSW 17:24:41 15° SW 17:35:26 10° SSW visible
